Location: ??????
(55.2000°N, 38.3000°E)
Time: 08:35:58
(UTC+00:00)

Cosmos 1441 Rocket - Pass Details

Date: 15 November 2025
Orbit: 424 x 447 km, 81.1° (Epoch: 14 December)

Event Time Altitude Azimuth Distance (km) Brightness Sun altitude
Rises 03:43:04 0° 180° (S) 2,391 6.8 -10.7°
Reaches altitude 10° 03:45:08 10° 175° (S) 1,526 5.9 -10.5°
Maximum altitude 03:48:21 50° 99° (E) 553 3.8 -10.0°
Drops below altitude 10° 03:51:36 10° 23° (NNE) 1,532 5.7 -9.6°
Sets 03:53:41 0° 18° (NNE) 2,402 6.6 -9.3°
